Location: Sherrills_Ford_Terrell
(35.6000°N, 80.9830°W)
Time: 17:11:59
(UTC-05:00)

ISS - Visible Passes

Search period start: 18 January 2017 00:00
Search period end: 28 January 2017 00:00
Orbit: 400 x 410 km, 51.6° (Epoch: 19 January)

Date Brightness Start Highest point End Pass type
(mag) Time Alt. Az. Time Alt. Az. Time Alt. Az.
18 Jan -0.4 05:16:04 14° NE 05:16:04 14° NE 05:17:07 10° ENE visible
18 Jan -3.0 06:48:45 12° WNW 06:51:37 53° SW 06:54:47 10° SSE visible
19 Jan -3.2 05:58:59 55° NNW 05:59:30 69° NE 06:02:44 10° SE visible
20 Jan -0.4 05:09:18 17° E 05:09:18 17° E 05:10:17 10° ESE visible
20 Jan -1.6 06:41:59 14° W 06:43:36 19° SW 06:45:56 10° S visible
21 Jan -2.2 05:52:23 32° S 05:52:23 32° S 05:54:38 10° SSE visible
25 Jan -1.2 18:58:44 10° SSE 19:00:11 15° SE 19:00:11 15° SE visible
26 Jan -1.7 19:41:24 10° SW 19:43:21 33° SW 19:43:21 33° SW visible
27 Jan -2.8 18:49:23 10° SSW 18:52:28 41° SE 18:53:43 27° E visible
